星链-4173 (STARLINK-4173 )

导读

STARLINK-4173是美国太空探索技术公司(SpaceX)星链星座的成员,于2022年7月24日发射升空。它隶属于第二代星链卫星,旨在为全球提供低延迟、高速率的宽带互联网服务,尤其覆盖偏远与网络基础设施匮乏区域。作为星链大规模组网的一环,该卫星运行在近地轨道,依托星座部署推进全球卫星互联网覆盖进程。

Basic Information
目录编号:
53285
目录名称:
STARLINK-4173
国际标识:
2022-086AV
轨道中心:
EARTH
卫星名称:
星链-4173
卫星全名:
星链-4173 (STARLINK-4173 )
卫星状态:
在轨 (已飞行1503 天)
发射日期:
2022-07-24 UTC
国别 :
美国 (US)
星等 :
--
Orbit Information
数据来源 国际轨道数据
星历时间: 2026-09-03T16:00:02+0800
20小时前
查看轨道信息
半长轴: 6837.879km
偏心率: 0.0001183
轨道倾角: 53.158°
近地点辐角 95.338°
升交点赤经 93.746°
平近点角 220.727°
近地点: 458.933km
远地点: 460.551km
周期: 93.787分钟
每日圈数: 15.35397
Detailed Information
固有亮度:
5
最大亮度:
2.5
卫星平台:
Starlink v1.5
覆盖范围:
全球
运营商:
太空探索技术公司
运营商所在国:
美国
制造商(研发单位):
太空探索技术公司
制造商所在国:
美国
使用方式:
暂无
Satellite Introduction
星链(Starlink)计划是由太空探索技术公司(SpaceX)提出的一个巨型低轨卫星互联网星座项目,计划在2019年至2024年间在太空搭建由约1.2万颗卫星组成的“星链”网络,其中1584颗将部署在地球上空550千米处的近地轨道,并从2020年开始工作。该卫星仍在工作。
2D Orbit Map
3D Orbit Map
Orbit Altitude Analysis Chart
Orbit Inclination Analysis Chart
Orbit Comprehensive Analysis Chart
View Comprehensive Chart
Conjunction Data List
Event ID Objects TCA Miss Dist (km) Collision Risk Probability Collision Risk Index (CRI) Action
CDM_260905-123305-187605-328521
2026-09-05T
12:33:40+0000
0.742 km
远距离
6.301147E-5 中风险 0.71
CDM_260905-105905-187605-328521
2026-09-05T
10:59:56+0000
2.171 km
极远距离
2.077764E-6 低风险 0.41
CDM_260905-140705-187605-328521
2026-09-05T
14:07:24+0000
2.889 km
极远距离
1.254565E-6 低风险 0.37
CDM_260829-045005-328506-420321
2026-08-29T
04:50:43+0000
2.994 km
极远距离
1.194014E-6 低风险 0.37